FW1147 Weather Reports


Display with metric or nautical units.
time (UTC)temp
F
wind
direction
speed
MPH
gust
MPH
rain 1hr
in
rain 24hr
in
rain mn
in
humidity
%
barometer
mb
20260504204535 82 58 5.0 10.0 0.00 0.00 0.00 20 1003.5
20260504204019 81 24 4.0 11.0 0.00 0.00 0.00 20 1003.6
20260504203524 81 123 5.0 11.0 0.00 0.00 0.00 19 1003.6
20260504203048 80 5 4.0 11.0 0.00 0.00 0.00 19 1003.5
20260504202521 79 118 0.0 4.0 0.00 0.00 0.00 19 1003.7
20260504202021 78 0 1.0 11.0 0.00 0.00 0.00 18 1003.9
20260504201540 78 276 3.0 13.0 0.00 0.00 0.00 19 1004.0
20260504201021 78 294 7.0 13.0 0.00 0.00 0.00 19 1004.2
20260504200525 79 307 8.0 13.0 0.00 0.00 0.00 18 1004.2
20260504200040 80 92 2.0 9.0 0.00 0.00 0.00 19 1004.2
20260504195519 79 322 3.0 9.0 0.00 0.00 0.00 19 1004.4
20260504195019 79 291 5.0 13.0 0.00 0.00 0.00 19 1004.3
20260504194542 79 252 5.0 13.0 0.00 0.00 0.00 19 1004.4
20260504194023 79 344 5.0 13.0 0.00 0.00 0.00 18 1004.3
20260504193524 79 9 8.0 13.0 0.00 0.00 0.00 18 1004.2
20260504193035 79 341 4.0 12.0 0.00 0.00 0.00 20 1004.3
20260504192521 79 69 4.0 11.0 0.00 0.00 0.00 20 1004.4
20260504192023 79 326 4.0 11.0 0.00 0.00 0.00 20 1004.4
20260504191539 79 42 5.0 11.0 0.00 0.00 0.00 20 1004.4
20260504191021 78 352 4.0 12.0 0.00 0.00 0.00 20 1004.5
20260504190521 78 277 7.0 18.0 0.00 0.00 0.00 19 1004.6
20260504190042 79 344 7.0 18.0 0.00 0.00 0.00 19 1004.6
20260504185521 79 302 3.0 18.0 0.00 0.00 0.00 22 1004.6
20260504185025 79 0 2.0 8.0 0.00 0.00 0.00 22 1004.8
20260504184540 78 45 2.0 8.0 0.00 0.00 0.00 23 1004.8
20260504184019 78 132 3.0 8.0 0.00 0.00 0.00 22 1004.9
20260504183532 77 105 1.0 9.0 0.00 0.00 0.00 24 1005.1
20260504183035 77 185 3.0 10.0 0.00 0.00 0.00 22 1005.2
20260504182522 77 15 3.0 11.0 0.00 0.00 0.00 24 1005.4
20260504182021 77 78 5.0 11.0 0.00 0.00 0.00 25 1005.4
20260504181541 77 55 7.0 12.0 0.00 0.00 0.00 27 1005.4
20260504181027 76 146 6.0 12.0 0.00 0.00 0.00 28 1005.6
20260504180522 76 109 8.0 12.0 0.00 0.00 0.00 27 1005.6
20260504180049 76 108 6.0 10.0 0.00 0.00 0.00 27 1005.7
20260504175521 76 95 6.0 10.0 0.00 0.00 0.00 29 1005.8
20260504175024 76 69 3.0 9.0 0.00 0.00 0.00 27 1005.9
20260504174544 76 55 4.0 16.0 0.00 0.00 0.00 28 1006.0
20260504174022 76 121 6.0 16.0 0.00 0.00 0.00 28 1006.0
20260504173522 75 74 6.0 16.0 0.00 0.00 0.00 29 1006.1
20260504173038 75 41 4.0 10.0 0.00 0.00 0.00 28 1006.2
20260504172521 74 71 5.0 9.0 0.00 0.00 0.00 28 1006.2
20260504172022 74 62 2.0 9.0 0.00 0.00 0.00 29 1006.3
20260504171539 73 28 3.0 10.0 0.00 0.00 0.00 31 1006.3
20260504171021 73 360 4.0 10.0 0.00 0.00 0.00 30 1006.3
20260504170521 73 337 4.0 9.0 0.00 0.00 0.00 30 1006.4
20260504151021 64 321 6.0 12.0 0.00 0.00 0.00 42 1006.4
20260504150522 63 307 7.0 14.0 0.00 0.00 0.00 44 1006.4
20260504141023 55 321 8.0 14.0 0.00 0.00 0.00 53 1006.6
20260504140524 55 306 10.0 15.0 0.00 0.00 0.00 53 1006.6
20260504130523 50 322 6.0 14.0 0.00 0.00 0.00 65 1006.5
20260504110521 44 274 10.0 12.0 0.00 0.00 0.00 71 1006.0
20260504100519 47 269 11.0 13.0 0.00 0.00 0.00 66 1006.3
20260504081551 48 313 4.0 8.0 0.00 0.00 0.00 62 1007.1
20260504081024 48 283 4.0 11.0 0.00 0.00 0.00 63 1007.1
20260504080523 47 234 7.0 11.0 0.00 0.00 0.00 64 1007.1
20260504050524 54 136 3.0 6.0 0.00 0.00 0.00 54 1008.4
20260504045523 54 108 5.0 8.0 0.00 0.00 0.00 54 1008.5
20260504045020 54 106 4.0 8.0 0.00 0.00 0.00 54 1008.5
20260504044541 55 119 5.0 8.0 0.00 0.00 0.00 55 1008.5
20260504044022 55 128 6.0 9.0 0.00 0.00 0.00 56 1008.5
20260504043521 55 133 7.0 10.0 0.00 0.00 0.00 53 1008.6
20260504043038 55 126 8.0 10.0 0.00 0.00 0.00 53 1008.6
20260504042523 55 128 7.0 10.0 0.00 0.00 0.00 52 1008.7
20260504042022 55 116 7.0 9.0 0.00 0.00 0.00 51 1008.7
20260504041536 55 92 7.0 10.0 0.00 0.00 0.00 51 1008.7
20260504041023 55 98 8.0 11.0 0.00 0.00 0.00 51 1008.7
20260504040522 55 100 8.0 11.0 0.00 0.00 0.00 51 1008.8
20260504040106 55 101 8.0 11.0 0.00 0.00 0.00 51 1008.9
20260504035525 55 114 6.0 8.0 0.00 0.00 0.00 52 1009.0
20260504035023 55 114 6.0 9.0 0.00 0.00 0.00 51 1009.0
20260504034541 56 112 6.0 10.0 0.00 0.00 0.00 51 1009.1
20260504034021 56 103 8.0 10.0 0.00 0.00 0.00 50 1009.1
20260504033523 56 90 8.0 10.0 0.00 0.00 0.00 49 1009.1
20260504033038 56 90 7.0 10.0 0.00 0.00 0.00 48 1009.0
20260504032526 56 93 7.0 8.0 0.00 0.00 0.00 47 1008.9
20260504032025 56 88 6.0 7.0 0.00 0.00 0.00 46 1008.9
20260504031539 56 94 4.0 8.0 0.00 0.00 0.00 46 1009.0
20260504031020 57 97 5.0 9.0 0.00 0.00 0.00 46 1009.1
20260504030523 57 92 7.0 9.0 0.00 0.00 0.00 45 1009.2
20260504030038 58 82 7.0 9.0 0.00 0.00 0.00 44 1008.9
20260504025523 58 73 8.0 9.0 0.00 0.00 0.00 44 1008.9
20260504025024 59 70 8.0 9.0 0.00 0.00 0.00 42 1008.9
20260504024538 60 70 6.0 10.0 0.00 0.00 0.00 42 1008.9
20260504024025 61 71 6.0 11.0 0.00 0.00 0.00 41 1008.9
20260504023523 62 65 9.0 12.0 0.00 0.00 0.00 39 1008.9
20260504023047 63 59 10.0 13.0 0.00 0.00 0.00 37 1008.8
20260504022524 64 55 11.0 13.0 0.00 0.00 0.00 36 1008.8
20260504022025 64 52 11.0 12.0 0.00 0.00 0.00 35 1008.9
20260504021540 65 53 8.0 11.0 0.00 0.00 0.00 35 1008.7
20260504021024 66 51 9.0 11.0 0.00 0.00 0.00 34 1008.8
20260504020523 66 55 7.0 10.0 0.00 0.00 0.00 33 1008.7
20260504020039 66 50 7.0 9.0 0.00 0.00 0.00 33 1008.6
20260504015523 67 48 7.0 9.0 0.00 0.00 0.00 33 1008.6
20260504015023 67 49 6.0 9.0 0.00 0.00 0.00 33 1008.6
20260504014550 67 58 7.0 9.0 0.00 0.00 0.00 33 1008.6
20260504014022 67 62 6.0 9.0 0.00 0.00 0.00 33 1008.5
20260504013523 68 67 8.0 9.0 0.00 0.00 0.00 34 1008.5
20260504013039 69 67 8.0 11.0 0.00 0.00 0.00 34 1008.5
20260504012521 69 61 9.0 11.0 0.00 0.00 0.00 33 1008.6
20260504012025 70 64 8.0 9.0 0.00 0.00 0.00 33 1008.6
20260504011540 72 69 5.0 8.0 0.00 0.00 0.00 35 1008.5
20260504011024 73 71 6.0 8.0 0.00 0.00 0.00 34 1008.5
20260504010522 73 71 6.0 8.0 0.00 0.00 0.00 32 1008.4
20260504010035 74 72 4.0 9.0 0.00 0.00 0.00 31 1008.5
20260504005523 74 82 7.0 9.0 0.00 0.00 0.00 31 1008.6
20260504005023 75 97 6.0 8.0 0.00 0.00 0.00 31 1008.5
20260504004545 75 92 4.0 7.0 0.00 0.00 0.00 30 1008.6
20260504004023 75 92 5.0 7.0 0.00 0.00 0.00 29 1008.6
20260504003527 75 86 5.0 7.0 0.00 0.00 0.00 28 1008.7
20260504003040 74 76 3.0 5.0 0.00 0.00 0.00 28 1008.7
20260504002521 75 69 4.0 8.0 0.00 0.00 0.00 27 1008.7
20260504002023 75 69 4.0 9.0 0.00 0.00 0.00 26 1008.7
20260504001551 75 88 7.0 9.0 0.00 0.00 0.00 26 1008.8
20260504001023 76 84 6.0 9.0 0.00 0.00 0.00 25 1008.9
20260504000523 77 65 5.0 9.0 0.00 0.00 0.00 24 1008.9
20260504000038 77 44 5.0 9.0 0.00 0.00 0.00 23 1008.9
20260503235522 77 67 3.0 7.0 0.00 0.00 0.00 23 1009.0
20260503235024 76 89 3.0 6.0 0.00 0.00 0.00 23 1009.0
20260503234545 76 93 3.0 7.0 0.00 0.00 0.00 23 1009.1
20260503234024 76 65 4.0 9.0 0.00 0.00 0.00 26 1009.2
20260503233522 77 55 5.0 9.0 0.00 0.00 0.00 25 1009.2
20260503233043 78 57 5.0 9.0 0.00 0.00 0.00 23 1009.2
20260503232523 79 69 4.0 7.0 0.00 0.00 0.00 22 1009.1
20260503232021 79 60 0.0 4.0 0.00 0.00 0.00 19 1009.2
20260503231540 79 324 1.0 9.0 0.00 0.00 0.00 19 1009.2
20260503231022 79 0 1.0 9.0 0.00 0.00 0.00 19 1009.3
20260503230521 79 352 5.0 10.0 0.00 0.00 0.00 19 1009.4
20260503230038 80 53 4.0 10.0 0.00 0.00 0.00 21 1009.3
20260503225543 80 43 6.0 10.0 0.00 0.00 0.00 21 1009.3
20260503225024 79 57 2.0 9.0 0.00 0.00 0.00 21 1009.5
20260503224539 79 9 5.0 9.0 0.00 0.00 0.00 21 1009.6
20260503224023 78 13 3.0 12.0 0.00 0.00 0.00 21 1009.6
20260503223526 78 5 5.0 12.0 0.00 0.00 0.00 20 1009.6
20260503223035 78 30 5.0 13.0 0.00 0.00 0.00 21 1009.5
20260503222522 78 60 9.0 13.0 0.00 0.00 0.00 21 1009.6
20260503222022 78 69 5.0 11.0 0.00 0.00 0.00 20 1009.7
20260503221535 78 59 4.0 12.0 0.00 0.00 0.00 21 1009.8
20260503221022 78 352 3.0 13.0 0.00 0.00 0.00 19 1009.9
20260503220526 79 15 7.0 13.0 0.00 0.00 0.00 19 1010.0
20260503220047 79 36 3.0 14.0 0.00 0.00 0.00 21 1010.2
20260503215521 78 38 7.0 14.0 0.00 0.00 0.00 20 1010.3
20260503215023 78 27 6.0 14.0 0.00 0.00 0.00 21 1010.3
20260503214541 77 13 7.0 12.0 0.00 0.00 0.00 21 1010.3
20260503214023 76 16 4.0 10.0 0.00 0.00 0.00 19 1010.3
20260503213522 78 264 3.0 12.0 0.00 0.00 0.00 20 1010.4
20260503213038 78 58 5.0 12.0 0.00 0.00 0.00 20 1010.4
20260503212522 78 13 5.0 10.0 0.00 0.00 0.00 21 1010.6
20260503212025 77 194 4.0 12.0 0.00 0.00 0.00 20 1010.6
20260503211539 78 34 6.0 12.0 0.00 0.00 0.00 20 1010.6
20260503211025 78 61 6.0 12.0 0.00 0.00 0.00 22 1010.8
20260503210524 77 335 5.0 12.0 0.00 0.00 0.00 21 1010.8
20260503210034 77 15 1.0 11.0 0.00 0.00 0.00 21 1011.0
20260503205522 77 65 4.0 12.0 0.00 0.00 0.00 22 1011.1
20260503205023 77 40 7.0 14.0 0.00 0.00 0.00 21 1011.4